Station SJNP4 - 9755371 - San Juan, La Puntilla, San Juan Bay, PR Image indicating link to RSS feed of recent meteorological observations for station SJNP4


Conditions at SJNP4 as of
(3:48 am AST)
0748 GMT on 07/23/2024:
     

Click on the graph icon in the table below to see a time series plot of the last five days of that observation.

5-day plot - Wind Direction Wind Direction (WDIR):ESE ( 110 deg true )
5-day plot - Wind Speed Wind Speed (WSPD): 6.0 kts
5-day plot - Wind Gust Wind Gust (GST): 7.0 kts
5-day plot - Atmospheric Pressure Atmospheric Pressure (PRES):30.02 in
5-day plot - Air Temperature Air Temperature (ATMP): 81.5 °F
5-day plot - Water Temperature Water Temperature (WTMP): 84.2 °F
5-day plot - Wind Speed at 10 Meters Wind Speed at 10 meters (WSPD10M): 5.8 kts
5-day plot - Wind Speed at 20 Meters Wind Speed at 20 meters (WSPD20M): 7.8 kts
5-day plot -  Wind Speed, Wind Gust and Atmospheric Pressure Combined plot of Wind Speed, Gust, and Air Pressure
NOS Water Level Observation Network Water Level
Previous observations
TIME
(AST)
5-day plot - Wind Direction
WDIR
 
5-day plot - Wind Speed
WSPD
kts
5-day plot - Wind Gust
GST
kts
5-day plot - Wave Height
WVHT
ft
5-day plot - Dominant Wave Period
DPD
sec
5-day plot - Average Wave Period
APD
sec
5-day plot - Mean Wave Direction
MWD
 
5-day plot - Atmospheric Pressure
PRES
in
5-day plot - Pressure Tendency
PTDY
in
5-day plot - Air Temperature
ATMP
°F
5-day plot - Water Temperature
WTMP
°F
5-day plot - Dew Point
DEWP
°F
5-day plot - Salinity
SAL
psu
5-day plot - Visibility
VIS
nmi
5-day plot - Tide (above MLLW)
TIDE
ft
2024-07-23 03:42 amESE 7.0 8.0----30.02- 81.3 84.2----
2024-07-23 03:36 amESE 6.0 8.0----30.02- 81.7 84.2----
2024-07-23 03:30 am SE 6.0 8.0----30.02- 81.7 84.2----
2024-07-23 03:24 am SE 7.0 8.0----30.02- 81.7 84.2----
2024-07-23 03:18 amESE 7.0 8.0----30.02- 82.0 84.2----
2024-07-23 03:12 amESE 7.0 8.9----30.02- 82.2 84.2----
2024-07-23 03:06 amESE 7.0 8.9----30.02- 81.9 84.4----
2024-07-23 03:00 amESE 6.0 8.0----30.02-0.03 81.9 84.6----
2024-07-23 02:54 amESE 5.1 8.0----30.02- 81.9 84.6----
2024-07-23 02:48 amESE 6.0 9.9----30.02- 82.4 84.6----
2024-07-23 02:42 amESE 6.0 8.0----30.02- 82.2 84.6----
2024-07-23 02:36 amESE 7.0 9.9----30.02- 82.2 84.6----
2024-07-23 02:30 amESE 7.0 9.9----30.02- 82.4 84.6----
2024-07-23 02:24 amESE 7.0 8.9----30.02- 82.8 84.6----
2024-07-23 02:18 am E 8.9 11.1----30.02- 82.9 84.6----
2024-07-23 02:12 am E 8.9 12.0----30.02- 82.9 84.6----
2024-07-23 02:06 am E 8.9 12.0----30.02- 82.9 84.6----
2024-07-23 02:00 am E 9.9 12.0----30.02-0.04 82.9 84.6----
2024-07-23 01:54 am E 8.0 13.0----30.02- 82.9 84.6----
2024-07-23 01:48 am E 8.9 11.1----30.03- 82.8 84.6----
2024-07-23 01:42 amESE 7.0 11.1----30.03- 82.8 84.6----
2024-07-23 01:36 am E 8.0 8.9----30.03- 82.8 84.6----
2024-07-23 01:30 amESE 7.0 8.9----30.03- 82.4 84.6----
2024-07-23 01:24 amESE 6.0 8.0----30.03- 82.4 84.7----
2024-07-23 01:18 amESE 7.0 9.9----30.03- 82.4 84.7----
2024-07-23 01:12 am E 7.0 8.0----30.03- 82.4 84.7----
2024-07-23 01:06 amESE 7.0 9.9----30.04- 82.4 84.7----
2024-07-23 01:00 amESE 7.0 9.9----30.04-0.02 82.4 84.9----
2024-07-23 12:54 amESE 8.0 9.9----30.04- 82.6 84.9----
2024-07-23 12:48 amESE 8.0 9.9----30.04- 82.6 84.9----
2024-07-23 12:42 amESE 7.0 11.1----30.04- 82.6 84.9----
2024-07-23 12:36 amESE 8.0 9.9----30.04- 82.9 84.9----
2024-07-23 12:30 am E 8.9 12.0----30.05- 83.1 85.1----
2024-07-23 12:24 am E 8.0 12.0----30.05- 82.4 85.1----
2024-07-23 12:18 am E 11.1 14.0----30.05- 81.7 85.1----
2024-07-23 12:12 amESE 7.0 8.0----30.05- 82.0 85.1----
2024-07-23 12:06 amESE 7.0 8.0----30.06- 82.2 85.1----
2024-07-23 12:00 amESE 7.0 8.9----30.05+0.00 82.4 85.1----
2024-07-22 11:54 pmESE 9.9 11.1----30.05- 82.2 85.1----
2024-07-22 11:48 pmESE 7.0 8.9----30.06- 82.2 85.1----
2024-07-22 11:42 pmESE 8.0 9.9----30.06- 82.0 85.1----
2024-07-22 11:36 pmESE 8.0 9.9----30.06- 81.9 85.1----
2024-07-22 11:30 pmESE 8.0 9.9----30.06- 82.4 85.1----
2024-07-22 11:24 pmESE 8.0 9.9----30.06- 82.4 85.3----
2024-07-22 11:18 pmESE 8.9 12.0----30.06- 82.8 85.3----
2024-07-22 11:12 pm E 8.9 13.0----30.06- 82.2 85.1----
2024-07-22 11:06 pmESE 11.1 14.0----30.06- 82.6 85.3----
2024-07-22 11:00 pmESE 15.0 17.1----30.06+0.03 82.4 85.3----
2024-07-22 10:54 pm E 12.0 15.9----30.06- 82.2 85.3----
2024-07-22 10:48 pmESE 8.0 9.9----30.06- 83.1 85.3----
2024-07-22 10:42 pmESE 7.0 8.9----30.06- 82.8 85.3----
2024-07-22 10:36 pmESE 6.0 8.0----30.06- 82.9 85.3----
2024-07-22 10:30 pmESE 6.0 7.0----30.06- 82.8 85.3----
2024-07-22 10:24 pmESE 5.1 7.0----30.06- 82.8 85.3----
2024-07-22 10:18 pmESE 6.0 8.0----30.06- 82.8 85.3----
2024-07-22 10:12 pmESE 5.1 7.0----30.06- 82.9 85.3----
2024-07-22 10:06 pmESE 7.0 8.0----30.06- 82.8 85.3----
2024-07-22 10:00 pm SE 7.0 8.0----30.06+0.05 82.9 85.3----
2024-07-22 09:54 pm SE 6.0 8.9----30.06- 82.9 85.3----
2024-07-22 09:48 pmESE 8.9 11.1----30.06- 83.3 85.3----
2024-07-22 09:42 pmESE 7.0 8.0----30.05- 83.5 85.3----
2024-07-22 09:36 pm E 8.0 9.9----30.05- 84.0 85.3----
2024-07-22 09:30 pm E 8.9 11.1----30.05- 84.2 85.3----
2024-07-22 09:24 pm E 9.9 14.0----30.05- 84.0 85.3----
2024-07-22 09:18 pm E 11.1 13.0----30.05- 84.0 85.3----
2024-07-22 09:12 pm E 11.1 14.0----30.05- 84.0 85.3----
2024-07-22 09:06 pm E 9.9 12.0----30.05- 84.0 85.3----
2024-07-22 09:00 pm E 11.1 13.0----30.05+0.05 84.2 85.3----
2024-07-22 08:54 pm E 12.0 15.0----30.05- 84.2 85.3----
2024-07-22 08:48 pm E 11.1 14.0----30.04- 84.0 85.3----
2024-07-22 08:42 pm E 13.0 15.9----30.04- 84.2 85.3----
2024-07-22 08:36 pm E 12.0 15.9----30.04- 84.0 85.3----
2024-07-22 08:30 pm E 9.9 14.0----30.04- 84.2 85.3----
2024-07-22 08:24 pm E 11.1 13.0----30.03- 84.0 85.3----
2024-07-22 08:18 pm E 13.0 15.0----30.03- 84.0 85.3----
2024-07-22 08:12 pmENE 13.0 14.0----30.03- 84.0 85.3----
2024-07-22 08:06 pm E 12.0 17.1----30.03- 84.2 85.3----
2024-07-22 08:00 pm E 14.0 17.1----30.03+0.03 84.0 85.3----
2024-07-22 07:54 pm E 13.0 15.9----30.03- 84.0 85.3----
2024-07-22 07:48 pmENE 12.0 15.9----30.03-- 85.3----
2024-07-22 07:42 pmENE 12.0 14.0----30.02-- 85.3----
2024-07-22 07:36 pm E 12.0 13.0----30.02-- 85.3----
2024-07-22 07:30 pm E 11.1 14.0----30.02-- 85.3----
2024-07-22 07:24 pm E 9.9 14.0----30.02-- 85.3----
2024-07-22 07:18 pm E 9.9 12.0----30.02- 84.0 85.3----
2024-07-22 07:12 pm E 9.9 13.0----30.01- 83.8 85.3----
2024-07-22 07:06 pm E 11.1 14.0----30.01- 84.0 85.3----
2024-07-22 07:00 pm E 12.0 15.0----30.01+0.01 83.8 85.3----
2024-07-22 06:54 pm E 13.0 15.0----30.01- 84.0 85.3----
2024-07-22 06:48 pm E 13.0 15.0----30.01- 83.8 85.3----
2024-07-22 06:42 pm E 15.0 17.1----30.00- 83.8 85.3----
2024-07-22 06:36 pm E 13.0 15.9----30.00- 83.8 85.5----
2024-07-22 06:30 pm E 13.0 15.9----30.00- 84.0 85.5----
2024-07-22 06:24 pm E 13.0 15.9----30.00- 83.8 85.5----
2024-07-22 06:18 pm E 13.0 17.1----30.00- 84.0 85.5----
2024-07-22 06:12 pm E 14.0 15.9----30.00- 84.0 85.5----
2024-07-22 06:06 pm E 14.0 15.9----30.00- 84.0 85.5----
2024-07-22 06:00 pmENE 12.0 15.0----30.00+0.00 83.8 85.5----
2024-07-22 05:54 pmENE 11.1 14.0----30.00- 84.0 85.5----
2024-07-22 05:48 pmENE 12.0 14.0----30.00- 84.0 85.5----
2024-07-22 05:42 pmENE 12.0 13.0----30.00- 84.0 85.5----
2024-07-22 05:36 pmENE 11.1 15.0----30.00- 84.0 85.5----
2024-07-22 05:30 pm-------30.00-- 85.5----
2024-07-22 05:24 pm-------30.00-- 85.5----
2024-07-22 05:18 pm E 12.0 15.0----30.00- 84.4 85.5----
2024-07-22 05:12 pm E 13.0 15.0----30.00- 84.4 85.5----
2024-07-22 05:06 pm E 13.0 14.0----30.00- 84.2 85.5----
2024-07-22 05:00 pmENE 11.1 13.0----30.00-0.01- 85.5----
2024-07-22 04:54 pmENE 12.0 13.0----30.00-- 85.5----
2024-07-22 04:48 pm E 9.9 12.0----29.99- 84.0 85.5----
2024-07-22 04:42 pm E 9.9 13.0----29.99- 84.4 85.5----
2024-07-22 04:36 pm E 9.9 12.0----29.99- 84.2 85.5----
2024-07-22 04:30 pm E 11.1 13.0----29.99- 84.2 85.6----
2024-07-22 04:24 pm E 11.1 13.0----29.99- 84.2 85.6----
2024-07-22 04:18 pmENE 9.9 12.0----29.99- 84.2 85.5----
2024-07-22 04:12 pm E 9.9 12.0----29.99- 84.2 85.6----
2024-07-22 04:06 pm E 11.1 15.9----29.99- 84.2 85.5----
2024-07-22 04:00 pm E 12.0 14.0----29.99+0.00 84.2 85.6----
2024-07-22 03:54 pm E 14.0 18.1----29.99- 84.4 85.6----
2024-07-22 03:48 pm E 15.0 17.1----29.99-- 85.6----
2024-07-22 03:42 pm E 14.0 17.1----29.99-- 85.6----
2024-07-22 03:36 pm E 14.0 17.1----29.99-- 85.6----
2024-07-22 03:30 pm E 15.9 22.0----29.99- 84.2 85.6----
2024-07-22 03:24 pmENE 17.1 21.0----29.99- 83.8 85.6----
2024-07-22 03:18 pmENE 15.9 19.0----30.00- 84.6 85.6----
2024-07-22 03:12 pm E 14.0 17.1----30.00- 84.7 85.6----
2024-07-22 03:06 pmENE 12.0 17.1----30.00- 84.6 85.6----
2024-07-22 03:00 pmENE 12.0 18.1----30.00-0.01 84.4 85.6----
2024-07-22 02:54 pmENE 14.0 19.0----30.00- 84.6 85.6----
2024-07-22 02:48 pmENE 12.0 15.0----30.00- 84.6 85.6----
2024-07-22 02:42 pmENE 12.0 15.0----30.01- 84.6 85.6----
2024-07-22 02:36 pmENE 12.0 17.1----30.01- 84.4 85.6----
2024-07-22 02:30 pmENE 11.1 18.1----30.01- 84.4 85.6----
2024-07-22 02:24 pmENE 13.0 19.0----30.00- 84.7 85.6----
2024-07-22 02:18 pm E 15.0 20.0----30.00- 84.7 85.6----
2024-07-22 02:12 pm E 14.0 19.0----30.01- 84.7 85.6----
2024-07-22 02:06 pmENE 17.1 21.0----30.01- 85.1 85.6----
2024-07-22 02:00 pmENE 15.9 20.0----30.01-0.02 84.9 85.6----
2024-07-22 01:54 pmENE 15.0 20.0----30.01- 84.7 85.6----
2024-07-22 01:48 pm E 15.9 19.0----30.01- 84.7 85.6----
2024-07-22 01:42 pm E 18.1 22.0----30.00- 84.9 85.6----
2024-07-22 01:36 pm E 17.1 21.0----30.00- 85.1 85.6----
2024-07-22 01:30 pmENE 17.1 20.0----30.01- 84.9 85.6----
2024-07-22 01:24 pmENE 15.9 20.0----30.00- 85.1 85.6----
2024-07-22 01:18 pm E 17.1 22.0----30.00- 85.1 85.6----
2024-07-22 01:12 pm E 17.1 22.0----30.00- 85.1 85.6----
2024-07-22 01:06 pmENE 14.0 18.1----30.00- 85.1 85.6----
2024-07-22 01:00 pmENE 14.0 18.1----30.00-0.02 85.3 85.6----
2024-07-22 12:54 pmENE 12.0 17.1----30.00- 85.3 85.6----
2024-07-22 12:48 pmENE 12.0 15.0----30.01- 85.3 85.6----
2024-07-22 12:42 pmENE 12.0 17.1----30.01- 85.1 85.6----
2024-07-22 12:36 pm E 14.0 17.1----30.01- 85.1 85.6----
2024-07-22 12:30 pmENE 11.1 14.0----30.02- 85.3 85.6----
2024-07-22 12:24 pmENE 9.9 13.0----30.02- 85.3 85.6----
2024-07-22 12:18 pm E 14.0 18.1----30.02- 84.9 85.6----
2024-07-22 12:12 pmENE 14.0 18.1----30.02- 84.9 85.6----
2024-07-22 12:06 pm E 15.0 18.1----30.01- 85.1 85.6----
2024-07-22 12:00 pm E 18.1 24.1----30.01+0.00 85.1 85.6----
2024-07-22 11:54 amENE 15.0 19.0----30.01- 85.3 85.6----
2024-07-22 11:48 amENE 13.0 19.0----30.01- 85.3 85.6----
2024-07-22 11:42 amENE 14.0 20.0----30.01- 85.6 85.6----
2024-07-22 11:36 amENE 15.9 21.0----30.01- 85.3 85.6----
2024-07-22 11:30 amENE 15.0 20.0----30.01- 85.5 85.5----
2024-07-22 11:24 amENE 15.0 20.0----30.02- 85.3 85.6----
2024-07-22 11:18 am E 12.0 18.1----30.02- 85.3 85.6----
2024-07-22 11:12 amENE 13.0 15.9----30.02- 85.3 85.6----
2024-07-22 11:06 amENE 7.0 14.0----30.03- 84.4 85.5----
2024-07-22 11:00 amENE 11.1 14.0----30.03+0.02 83.8 85.6----
2024-07-22 10:54 am E 13.0 15.9----30.02- 83.1 85.5----
2024-07-22 10:48 am E 14.0 22.9----30.02- 83.5 85.6----
2024-07-22 10:42 amENE 18.1 21.0----30.02- 83.3 85.6----
2024-07-22 10:36 am E 17.1 21.0----30.03- 83.8 85.6----
2024-07-22 10:30 am E 13.0 15.0----30.03- 84.4 85.6----
2024-07-22 10:24 amENE 13.0 17.1----30.02- 83.3 85.5----
2024-07-22 10:18 am E 15.0 18.1----30.02- 82.9 85.5----
2024-07-22 10:12 am E 15.0 18.1----30.02- 83.3 85.5----
2024-07-22 10:06 amENE 13.0 15.9----30.02- 83.5 85.5----
2024-07-22 10:00 am E 12.0 14.0----30.02+0.04 83.7 85.5----
2024-07-22 09:54 amENE 11.1 15.0----30.02- 83.5 85.5----
2024-07-22 09:48 amENE 12.0 15.9----30.02- 83.5 85.5----
2024-07-22 09:42 am E 8.0 9.9----30.02- 83.5 85.5----
2024-07-22 09:36 amESE 6.0 7.0----30.03- 82.8 85.5----
2024-07-22 09:30 amESE 6.0 8.9----30.03- 82.4 85.3----
2024-07-22 09:24 am SE 8.0 9.9----30.02- 82.2 85.3----
2024-07-22 09:18 amESE 7.0 8.9----30.02- 82.2 85.3----
2024-07-22 09:12 amESE 7.0 9.9----30.02- 82.6 85.3----
2024-07-22 09:06 am E 9.9 11.1----30.02- 82.0 85.3----
2024-07-22 09:00 am E 8.0 11.1----30.01+0.03 81.9 85.3----
2024-07-22 08:54 amESE 6.0 8.9----30.01- 81.5 85.3----
2024-07-22 08:48 am E 7.0 8.9----30.01- 81.3 85.3----
2024-07-22 08:42 amESE 6.0 8.9----30.01- 81.1 85.1----
2024-07-22 08:36 amESE 8.9 11.1----30.01- 81.1 85.1----
2024-07-22 08:30 amESE 5.1 7.0----30.01- 81.1 85.1----
2024-07-22 08:24 amESE 6.0 7.0----30.01- 81.0 84.9----
2024-07-22 08:18 am SE 6.0 7.0----30.01- 80.6 84.9----
2024-07-22 08:12 amESE 5.1 8.0----30.01- 81.1 85.1----
2024-07-22 08:06 amESE 6.0 8.0----30.01- 80.6 85.1----
2024-07-22 08:00 amESE 7.0 8.0----30.00+0.02 80.6 85.1----
2024-07-22 07:54 amESE 6.0 8.0----30.01- 80.6 85.1----
2024-07-22 07:48 amESE 6.0 9.9----30.01- 80.8 85.1----
2024-07-22 07:42 am E 8.0 9.9----30.00- 80.6 85.1----
2024-07-22 07:36 am E 8.9 12.0----30.00- 80.6 85.1----
2024-07-22 07:30 am E 11.1 13.0----30.00- 80.6 85.1----
2024-07-22 07:24 am E 8.9 14.0----29.99- 80.4 85.1----
2024-07-22 07:18 am E 11.1 14.0----29.99- 80.1 85.1----
2024-07-22 07:12 am E 12.0 15.0----29.99- 80.1 85.1----
2024-07-22 07:06 am E 11.1 14.0----29.98- 79.7 85.1----
2024-07-22 07:00 am E 11.1 12.0----29.98+0.01 79.5 85.1----
2024-07-22 06:54 am E 8.9 12.0----29.98- 79.2 85.1----
2024-07-22 06:48 am E 11.1 13.0----29.98- 78.8 85.1----
2024-07-22 06:42 am E 13.0 15.9----29.99- 78.1 85.1----
2024-07-22 06:36 am E 13.0 22.0----30.00- 77.5 85.1----
2024-07-22 06:30 am E 22.0 32.1----30.00- 78.4 85.3----
2024-07-22 06:24 amENE 12.0 26.0----29.99- 80.1 85.3----
2024-07-22 06:18 am SE 7.0 8.9----29.98- 80.6 85.3----
2024-07-22 06:12 amESE 8.0 8.9----29.98- 81.0 85.1----
2024-07-22 06:06 amESE 7.0 8.9----29.98- 81.1 85.3----
2024-07-22 06:00 amESE 8.0 11.1----29.98+0.00 81.3 85.3----
2024-07-22 05:54 am E 8.9 12.0----29.98- 81.7 85.3----
2024-07-22 05:48 am E 9.9 11.1----29.98- 81.1 85.3----
2024-07-22 05:42 am E 9.9 12.0----29.98- 81.1 85.3----
2024-07-22 05:36 am E 8.9 11.1----29.98- 80.6 85.3----
2024-07-22 05:30 amESE 6.0 11.1----29.98- 80.6 85.3----
2024-07-22 05:24 am E 8.9 12.0----29.98- 81.0 85.3----
2024-07-22 05:18 am E 11.1 14.0----29.98- 80.8 85.3----
2024-07-22 05:12 am E 8.9 14.0----29.98- 80.1 85.3----
2024-07-22 05:06 am E 9.9 15.0----29.98- 79.2 85.1----
2024-07-22 05:00 amESE 11.1 20.0----29.98+0.00 79.3 85.3----
2024-07-22 04:54 am E 17.1 28.0----29.98- 79.9 85.3----
2024-07-22 04:48 amENE 19.0 22.9----29.98- 81.1 85.3----
2024-07-22 04:42 amENE 11.1 18.1----29.98- 79.9 85.3----
2024-07-22 04:36 am NE 5.1 14.0----29.98- 79.3 85.3----
2024-07-22 04:30 am SE 2.9 6.0----29.97- 80.6 85.3----
2024-07-22 04:24 am SE 6.0 7.0----29.97- 80.6 85.3----
2024-07-22 04:18 amESE 6.0 7.0----29.97- 80.4 85.3----
2024-07-22 04:12 am SE 7.0 9.9----29.97- 80.4 85.3----
2024-07-22 04:06 am SE 8.9 9.9----29.97- 80.4 85.3----
2024-07-22 04:00 am SE 8.9 13.0----29.97-0.03 80.8 85.3----
2024-07-22 03:54 am SE 12.0 17.1----29.97- 81.5 85.3----